Norfolk, NE

2:01 PM CDT on May 28, 2017 (GMT -0500)
Stefan Memorial

Weather History for KOFK - October, 2014

Change the Weather History Date:

Thursday, October 23, 2014

  Actual Average Record
Temperature  
Mean Temperature 55 °F 48 °F  
Max Temperature 71 °F 60 °F 87 °F (1927)
Min Temperature 39 °F 36 °F 17 °F (1981)
Degree Days  
Heating Degree Days 10 17  
Month to date heating degree days 252 293  
Since 1 July heating degree days 381 435  
Cooling Degree Days 0 0  
Month to date cooling degree days 4 8  
Year to date cooling degree days 812 914  
Growing Degree Days 5 (Base 50)    
Moisture  
Dew Point 47 °F    
Average Humidity 68    
Maximum Humidity 100    
Minimum Humidity 35    
Precipitation  
Precipitation 0.00 in 0.05 in 0.93 in (1906)
Month to date precipitation 0.97 1.66  
Year to date precipitation 28.19 24.88  
Snow  
Snow 0.00 in 0.10 in - ()
Month to date snowfall 0.0 0.4  
Since 1 July snowfall 0.0 0.4  
Snow Depth 0.00 in    
Sea Level Pressure  
Sea Level Pressure 30.03 in    
Wind  
Wind Speed 7 mph (WSW)    
Max Wind Speed 15 mph    
Max Gust Speed 19 mph    
Visibility 6 miles    
Events Fog    
T = Trace of Precipitation, MM = Missing Value Source: NWS Daily Summary

Daily Weather History Graph

Daily Weather History Graph

Search for Another Location

Airport or City:

Trip Planner

Search our weather history database for the weather conditions in past years. The results will help you decide how hot, cold, wet, or windy it might be!

Date:

Astronomy

Oct. 23, 2014 Rise Set
Actual Time 7:51 AM CDT 6:35 PM CDT
Civil Twilight 7:23 AM CDT 7:04 PM CDT
Nautical Twilight 6:50 AM CDT 7:36 PM CDT
Astronomical Twilight 6:18 AM CDT 8:09 PM CDT
Moon 7:32 AM CDT (10/23) 6:38 PM CDT (10/23)
Length of Visible Light 11h 41m
Length of Day
10h 44m
Waning Crescent, 0% of the Moon is Illuminated
Oct 23
Waning Crescent
Oct 23
New
Oct 30
First Quarter
Nov 6
Full
Nov 14
Last Quarter

Hourly Weather History & Observations

Time (CDT) Temp. Windchill Dew Point Humidity Pressure Visibility Wind Dir Wind Speed Gust Speed Precip Events Conditions
12:05 AM 55.0 °F - 54.0 °F 96% 30.03 in 10.0 mi West 3.5 mph - N/A   Overcast
12:56 AM 55.0 °F - 54.0 °F 96% 30.02 in 10.0 mi West 4.6 mph - N/A   Overcast
1:56 AM 52.0 °F - 51.1 °F 97% 30.02 in 9.0 mi WNW 5.8 mph - N/A   Partly Cloudy
2:09 AM 52.0 °F - 51.1 °F 97% 30.03 in 2.5 mi WNW 8.1 mph - N/A   Partly Cloudy
2:12 AM 52.0 °F - 52.0 °F 100% 30.03 in 1.0 mi WNW 8.1 mph - N/A   Mist
2:18 AM 51.1 °F - 51.1 °F 100% 30.03 in 0.2 mi WNW 5.8 mph - N/A Fog Fog
2:56 AM 48.9 °F - 48.0 °F 97% 30.03 in 0.2 mi Calm Calm - N/A Fog Fog
3:06 AM 48.0 °F - 48.0 °F 100% 30.04 in 0.5 mi NW 4.6 mph - N/A Fog Fog
3:27 AM 48.0 °F - 46.9 °F 96% 30.04 in 0.2 mi WNW 5.8 mph - N/A Fog Fog
3:56 AM 46.9 °F - 46.9 °F 100% 30.04 in 0.2 mi West 4.6 mph - N/A Fog Fog
4:39 AM 46.0 °F 44.8 °F 46.0 °F 100% 30.04 in 0.5 mi WNW 3.5 mph - N/A Fog Fog
4:56 AM 45.0 °F 43.5 °F 45.0 °F 100% 30.05 in 0.5 mi WNW 3.5 mph - N/A Fog Fog
5:35 AM 44.1 °F - 44.1 °F 100% 30.04 in 0.2 mi Calm Calm - N/A Fog Fog
5:56 AM 43.0 °F - 43.0 °F 100% 30.06 in 0.2 mi Calm Calm - N/A Fog Fog
6:16 AM 42.1 °F - 42.1 °F 100% 30.05 in 0.2 mi Calm Calm - N/A Fog Fog
6:35 AM 41.0 °F 38.0 °F 41.0 °F 100% 30.05 in 1.2 mi West 4.6 mph - N/A   Mostly Cloudy
6:38 AM 41.0 °F 39.0 °F 41.0 °F 100% 30.05 in 3.0 mi West 3.5 mph - N/A   Scattered Clouds
6:56 AM 42.1 °F - 41.0 °F 96% 30.06 in 9.0 mi Calm Calm - N/A   Clear
7:19 AM 39.0 °F 36.8 °F 39.0 °F 100% 30.04 in 1.8 mi West 3.5 mph - N/A   Clear
7:53 AM 41.0 °F - 39.2 °F 93% 30.04 in 0.8 mi Calm Calm - N/A   Clear
7:56 AM 41.0 °F - 39.9 °F 96% 30.06 in 0.8 mi Calm Calm - N/A   Clear
8:20 AM 39.0 °F - 39.0 °F 100% 30.04 in 2.0 mi Calm Calm - N/A   Clear
8:28 AM 41.0 °F - 39.9 °F 96% 30.04 in 8.0 mi Calm Calm - N/A   Clear
8:56 AM 44.1 °F - 43.0 °F 96% 30.06 in 10.0 mi Calm Calm - N/A   Clear
9:56 AM 50.0 °F - 48.0 °F 93% 30.08 in 10.0 mi WNW 3.5 mph - N/A   Clear
10:56 AM 57.9 °F - 52.0 °F 81% 30.08 in 10.0 mi Calm Calm - N/A   Clear
11:56 AM 64.9 °F - 51.1 °F 61% 30.05 in 10.0 mi SSW 8.1 mph - N/A   Clear
12:56 PM 66.9 °F - 50.0 °F 54% 30.04 in 10.0 mi SSW 11.5 mph - N/A   Clear
1:56 PM 69.1 °F - 46.9 °F 45% 30.02 in 10.0 mi South 12.7 mph - N/A   Clear
2:56 PM 70.0 °F - 45.0 °F 41% 29.99 in 10.0 mi South 13.8 mph - N/A   Clear
3:56 PM 71.1 °F - 43.0 °F 36% 29.98 in 10.0 mi SSW 12.7 mph - N/A   Clear
4:56 PM 69.1 °F - 46.0 °F 44% 29.98 in 10.0 mi South 13.8 mph - N/A   Clear
5:56 PM 61.0 °F - 48.9 °F 64% 29.99 in 10.0 mi South 5.8 mph - N/A   Clear
6:56 PM 60.1 °F - 50.0 °F 69% 30.00 in 10.0 mi South 4.6 mph - N/A   Clear
7:56 PM 59.0 °F - 51.1 °F 75% 30.00 in 10.0 mi South 6.9 mph - N/A   Clear
8:56 PM 59.0 °F - 53.1 °F 81% 29.99 in 10.0 mi South 10.4 mph - N/A   Clear
9:56 PM 59.0 °F - 54.0 °F 83% 29.98 in 10.0 mi South 9.2 mph - N/A   Clear
10:56 PM 59.0 °F - 55.0 °F 87% 29.97 in 10.0 mi SSE 8.1 mph - N/A   Clear
11:56 PM 57.0 °F - 53.1 °F 87% 29.95 in 10.0 mi South 9.2 mph - N/A   Clear